STELLA

Last updated on Wed Aug 26 2026 00:04:27 GMT+0000 (Coordinated Universal Time)

1 22824U 93061B 26237.59871605 -.00000039 00000+0 23788-5 0 9993 2 22824 98.7669 302.0795 0007083 42.5822 90.8613 14.27471999714677
UTC large
Height (km)
Speed (km/s)
/
Latitude / Longitude
Inclination (degrees)
Orbital Period (minutes)
Azimuth
Elevation
Range (km)
Doppler Factor

Next 0 passes for location: London (51.5072 / 0.1276)

No passes found over London.
STELLA